Home > Weather > Puebla > Past weeks

Flag for Mexico Past Weather in Puebla, Puebla, Mexico — Yesterday and Last 2 Weeks

Now
64 °F

Broken clouds.


Feels Like: 64 °F
Forecast: 53 / 78 °F
Wind: 3 mph from East

Location: Mexico City / Licenci

Current Time: May 29, 2016 at 10:36:07 AM

Latest Report: May 29, 2016 at 9:48 AM


Visibility: 5 mi

Pressure: 29.90 "Hg (23.22 "Hg at 2155m altitude)

Humidity: 73%

Dew Point: 55 °F

Location of PueblaLocation

Past Weather in Puebla — Graph

°F

Puebla Temperature Yesterday

Maximum temperature yesterday: 79 °F (at 2:45 PM)
Minimum temperature yesterday: 57 °F (at 3:49 AM)
Average temperature yesterday: 65 °F

High & Low Weather Summary for the Past Weeks

 TemperatureHumidityPressure
High84 °F (May 20, 4:45 PM)94% (May 21, 7:53 AM)30.47 "Hg (May 21, 7:53 AM)
Low57 °F (May 14, 8:20 AM)14% (May 20, 4:45 PM)29.58 "Hg (May 19, 6:50 PM)
Average67 °F59%30.16 "Hg
* Reported May 14 8:20 AM — May 29 8:46 AM, Puebla, Weather by CustomWeather, © 2016

Note: Actual official high and low records may vary slightly from our data, if they occured in-between our weather recording intervals... More about our weather records

Advertising

Puebla Weather History for the Previous 24 Hours

Scroll right to see more
 ConditionsComfort  
Time TempWeatherWind HumidityBarometerVisibility
8:46 AM
Sun, May 29
61 °FBroken clouds.3 mph83%30.41 "Hg4 mi
8:24 AM59 °FBroken clouds.5 mph88%30.40 "Hg4 mi
7:50 AM59 °FFog.7 mph88%30.39 "Hg3 mi
7:21 AM57 °FPartly cloudy.9 mph94%30.38 "Hg3 mi
6:51 AM59 °FPartly cloudy.5 mph82%29.81 "Hg5 mi
4:45 AM59 °FPassing clouds.3 mph82%30.37 "Hg6 mi
3:45 AM59 °FPassing clouds.5 mph82%29.82 "Hg7 mi
2:45 AM59 °FOvercast.6 mph82%30.39 "Hg7 mi
1:47 AM59 °FMostly cloudy.6 mph88%30.41 "Hg5 mi
12:52 AM59 °FThunderstorms. Mostly cloudy.6 mph88%29.91 "Hg5 mi
11:45 PM
Sat, May 28
64 °FPartly cloudy.12 mph68%30.41 "Hg6 mi
10:48 PM66 °FPartly cloudy.6 mph60%30.38 "Hg6 mi
9:45 PM68 °FThunderstorms. Partly cloudy.6 mph56%29.83 "Hg6 mi
8:58 PM66 °FBroken clouds.8 mph60%30.32 "Hg5 mi
7:45 PM66 °FMostly cloudy.21 mph60%30.29 "Hg5 mi
5:57 PM79 °FBroken clouds.17 mph32%30.21 "Hg5 mi
2:45 PM79 °FSunny.14 mph30%30.27 "Hg5 mi
1:51 PM75 °FSunny.9 mph36%30.28 "Hg5 mi
Weather by CustomWeather, © 2016

See weather overviewHow to use our weather pages